Precipitable_Water
1.37 1.34 1.34 1.27 1.19 1.10 1.01 0.95 0.90 0.89 0.90 0.92 0.90 0.88 0.87 0.86 0.83 0.83 0.88 0.88 0.90 0.93 0.94 0.94 0.97 1.02 1.07 1.16 1.22 1.23 1.22 1.20 1.22 1.24 1.24 1.21 1.21 1.20 1.20 1.22 1.19 1.20 1.24 1.29 1.36 1.35 1.35 1.40 1.48 1.53 1.56 1.47 1.44 1.42 1.37 1.36 1.36 1.32 1.29 1.23 1.15 1.15 1.05 0.95 0.84 0.80 0.91 1.10 1.07 1.07 1.21 1.26 1.17 1.21 1.13 1.13 1.13 1.20 1.30 1.36 1.42 1.45 1.56 1.71 1.77
1.39 1.38 1.37 1.33 1.25 1.19 1.12 1.06 0.98 0.93 0.88 0.87 0.86 0.86 0.86 0.85 0.83 0.83 0.83 0.85 0.87 0.84 0.83 0.85 0.89 0.93 0.98 1.04 1.13 1.19 1.21 1.19 1.20 1.20 1.19 1.19 1.19 1.22 1.21 1.20 1.17 1.16 1.19 1.21 1.28 1.30 1.30 1.29 1.34 1.43 1.51 1.48 1.45 1.40 1.37 1.36 1.33 1.28 1.26 1.22 1.18 1.18 1.23 1.08 1.01 0.95 0.84 1.02 1.06 1.19 1.18 1.29 1.11 1.18 1.11 1.07 1.09 1.17 1.19 1.28 1.42 1.55 1.66 1.79 1.83
1.44 1.44 1.41 1.36 1.32 1.27 1.22 1.14 1.07 0.99 0.92 0.87 0.84 0.83 0.84 0.84 0.86 0.83 0.81 0.82 0.87 0.86 0.82 0.83 0.86 0.88 0.89 0.93 1.00 1.09 1.14 1.16 1.19 1.18 1.16 1.14 1.13 1.14 1.16 1.14 1.12 1.12 1.13 1.15 1.20 1.27 1.26 1.25 1.27 1.32 1.39 1.38 1.38 1.38 1.39 1.36 1.36 1.30 1.25 1.26 1.21 1.22 1.27 1.24 1.12 0.99 0.96 0.97 1.12 1.10 1.12 1.17 1.12 1.07 1.12 1.14 1.14 1.18 1.16 1.22 1.36 1.56 1.75 1.86 1.89
1.49 1.47 1.44 1.40 1.37 1.34 1.28 1.23 1.16 1.07 0.98 0.93 0.87 0.85 0.84 0.84 0.85 0.83 0.83 0.85 0.84 0.85 0.85 0.84 0.85 0.88 0.87 0.89 0.92 0.97 1.05 1.10 1.13 1.15 1.14 1.13 1.10 1.08 1.09 1.09 1.07 1.07 1.09 1.12 1.17 1.20 1.20 1.21 1.24 1.29 1.33 1.28 1.28 1.28 1.30 1.32 1.30 1.28 1.25 1.26 1.26 1.23 1.28 1.29 1.26 1.16 1.13 1.01 1.06 1.10 1.16 1.14 1.12 1.14 1.13 1.12 1.12 1.13 1.18 1.26 1.44 1.59 1.76 1.90 1.92
1.50 1.48 1.45 1.41 1.40 1.36 1.31 1.28 1.21 1.13 1.05 1.00 0.93 0.90 0.87 0.84 0.86 0.84 0.83 0.82 0.84 0.84 0.84 0.87 0.87 0.87 0.86 0.86 0.89 0.93 0.96 1.01 1.03 1.06 1.10 1.12 1.11 1.08 1.07 1.06 1.04 1.03 1.03 1.05 1.11 1.16 1.16 1.15 1.18 1.26 1.30 1.24 1.24 1.24 1.24 1.23 1.25 1.24 1.21 1.25 1.25 1.26 1.27 1.27 1.27 1.26 1.15 1.04 1.06 1.17 1.22 1.18 1.16 1.11 1.10 1.01 1.01 1.08 1.18 1.27 1.41 1.59 1.78 1.93 1.96
1.52 1.47 1.47 1.45 1.42 1.37 1.33 1.30 1.25 1.19 1.13 1.07 1.01 0.97 0.93 0.88 0.84 0.85 0.86 0.82 0.82 0.83 0.82 0.82 0.84 0.86 0.87 0.88 0.90 0.92 0.97 0.99 1.00 1.01 1.03 1.07 1.09 1.10 1.09 1.07 1.04 1.02 1.00 1.00 1.04 1.08 1.08 1.09 1.11 1.16 1.21 1.19 1.17 1.21 1.22 1.19 1.21 1.21 1.20 1.20 1.22 1.25 1.24 1.24 1.25 1.23 1.20 1.14 1.12 1.09 1.16 1.07 1.04 1.01 1.05 1.07 0.99 0.95 1.04 1.25 1.46 1.64 1.76 1.85 1.92
1.56 1.52 1.49 1.45 1.44 1.41 1.37 1.33 1.30 1.26 1.22 1.16 1.11 1.05 1.00 0.95 0.91 0.86 0.86 0.85 0.82 0.81 0.83 0.82 0.81 0.81 0.84 0.88 0.90 0.91 0.95 1.00 1.02 1.03 1.04 1.07 1.08 1.07 1.06 1.06 1.06 1.04 1.00 0.98 0.99 1.03 1.04 1.03 1.03 1.07 1.09 1.13 1.14 1.15 1.17 1.17 1.17 1.17 1.18 1.17 1.19 1.18 1.17 1.18 1.19 1.16 1.15 1.13 1.14 1.14 1.07 1.10 1.08 0.90 0.97 1.10 1.08 1.08 1.03 1.16 1.30 1.55 1.80 1.84 1.79
1.60 1.55 1.51 1.47 1.45 1.44 1.44 1.42 1.38 1.34 1.30 1.26 1.21 1.13 1.07 1.02 0.97 0.93 0.91 0.87 0.84 0.82 0.82 0.82 0.83 0.82 0.81 0.84 0.86 0.90 0.92 0.95 0.98 1.02 1.04 1.05 1.06 1.07 1.06 1.04 1.03 1.04 1.02 1.00 0.99 0.98 0.98 0.99 0.98 1.00 1.00 1.02 1.06 1.10 1.13 1.12 1.17 1.16 1.21 1.22 1.20 1.18 1.14 1.15 1.16 1.15 1.12 1.10 1.07 1.03 1.05 1.00 1.00 1.00 1.02 1.01 0.92 0.97 1.15 1.23 1.29 1.42 1.62 1.78 1.80
1.68 1.62 1.55 1.48 1.45 1.47 1.51 1.52 1.50 1.45 1.40 1.35 1.29 1.22 1.14 1.08 1.04 1.00 0.96 0.92 0.89 0.86 0.83 0.83 0.83 0.83 0.83 0.84 0.86 0.90 0.91 0.92 0.95 0.97 0.99 1.01 1.05 1.05 1.06 1.05 1.04 1.02 1.02 1.02 1.01 0.98 0.96 0.96 0.96 0.97 0.97 0.97 0.99 1.04 1.08 1.11 1.11 1.07 1.12 1.19 1.19 1.17 1.15 1.15 1.14 1.13 1.12 1.09 1.04 1.07 1.01 0.95 0.91 0.86 0.78 0.76 0.80 0.90 1.15 1.35 1.40 1.52 1.60 1.62 1.70
1.77 1.72 1.62 1.53 1.51 1.53 1.55 1.57 1.56 1.52 1.47 1.40 1.34 1.30 1.23 1.16 1.09 1.04 1.00 0.97 0.94 0.91 0.89 0.87 0.85 0.84 0.83 0.83 0.86 0.90 0.93 0.95 0.96 0.96 0.97 0.98 1.01 1.03 1.06 1.07 1.07 1.06 1.03 1.01 1.02 1.02 0.98 0.96 0.95 0.95 0.95 0.96 0.97 0.98 1.02 1.08 1.13 1.12 1.09 1.11 1.13 1.13 1.13 1.11 1.10 1.10 1.07 1.02 0.99 0.98 0.91 0.85 0.80 0.81 0.78 0.82 1.01 1.15 1.23 1.35 1.35 1.48 1.54 1.52 1.58
1.83 1.77 1.69 1.64 1.61 1.59 1.57 1.56 1.57 1.52 1.48 1.44 1.40 1.35 1.30 1.25 1.17 1.10 1.06 1.03 0.99 0.96 0.94 0.90 0.88 0.87 0.86 0.85 0.84 0.87 0.92 0.96 0.96 0.96 0.97 0.99 1.02 1.03 1.02 1.04 1.07 1.07 1.06 1.03 0.98 0.99 0.99 0.98 0.96 0.96 0.97 0.98 0.99 0.98 0.99 1.01 1.04 1.09 1.12 1.14 1.15 1.14 1.10 1.08 1.06 1.07 1.04 1.00 1.00 0.98 0.92 0.83 0.78 0.83 0.83 0.88 1.05 1.18 1.28 1.38 1.41 1.46 1.44 1.36 1.33
1.85 1.80 1.77 1.75 1.71 1.63 1.57 1.55 1.53 1.51 1.51 1.46 1.40 1.36 1.33 1.29 1.24 1.18 1.12 1.08 1.06 1.04 0.99 0.94 0.92 0.91 0.91 0.91 0.90 0.90 0.91 0.94 0.96 0.97 0.98 0.99 1.03 1.03 1.04 1.03 1.05 1.06 1.05 1.04 1.01 1.00 0.98 0.97 0.97 0.98 0.97 0.96 0.96 0.97 0.99 1.00 1.00 0.99 1.04 1.11 1.16 1.21 1.23 1.16 1.09 1.07 1.06 0.99 0.94 0.92 0.92 0.84 0.79 0.82 0.84 0.92 1.05 1.23 1.37 1.40 1.43 1.45 1.44 1.42 1.48
1.89 1.85 1.86 1.83 1.76 1.67 1.58 1.50 1.46 1.47 1.47 1.46 1.44 1.40 1.33 1.29 1.26 1.22 1.15 1.13 1.13 1.08 1.02 1.00 0.96 0.96 0.94 0.92 0.92 0.94 0.94 0.95 0.97 0.99 1.00 1.02 1.04 1.07 1.08 1.08 1.06 1.05 1.05 1.03 1.01 0.99 0.97 0.96 0.94 0.96 0.96 0.96 0.98 0.99 0.97 0.96 0.99 1.00 1.04 1.10 1.15 1.19 1.22 1.25 1.26 1.18 1.11 1.04 0.98 0.93 0.91 0.89 0.83 0.82 0.94 1.04 1.20 1.21 1.35 1.36 1.46 1.53 1.53 1.49 1.54
1.91 1.88 1.87 1.83 1.79 1.80 1.81 1.71 1.58 1.52 1.52 1.51 1.49 1.44 1.37 1.28 1.25 1.25 1.22 1.21 1.17 1.13 1.11 1.05 1.02 0.99 0.97 0.95 0.95 0.97 0.98 0.98 0.97 0.98 1.01 1.04 1.07 1.11 1.12 1.12 1.10 1.08 1.06 1.05 1.02 0.99 0.97 0.95 0.91 0.89 0.92 0.94 0.96 0.97 0.97 0.96 0.96 0.99 1.04 1.09 1.09 1.10 1.15 1.18 1.20 1.21 1.20 1.11 1.04 0.92 0.94 1.03 0.90 0.92 1.04 1.17 1.19 1.24 1.33 1.37 1.51 1.54 1.55 1.55 1.66
1.90 1.90 1.86 1.83 1.82 1.85 1.88 1.84 1.72 1.65 1.61 1.56 1.51 1.45 1.40 1.35 1.28 1.26 1.24 1.20 1.17 1.15 1.13 1.09 1.06 1.04 1.02 1.02 1.00 1.00 1.01 1.03 1.03 1.03 1.04 1.07 1.10 1.14 1.16 1.16 1.14 1.12 1.11 1.08 1.05 1.01 0.99 0.98 0.95 0.90 0.89 0.92 0.95 0.97 0.96 0.95 0.95 0.97 1.01 1.03 1.03 1.02 1.04 1.08 1.11 1.13 1.13 1.13 1.07 1.02 1.02 1.07 1.07 1.07 1.13 1.26 1.32 1.43 1.51 1.52 1.61 1.66 1.69 1.74 1.71
1.86 1.90 1.88 1.86 1.84 1.83 1.82 1.77 1.72 1.66 1.60 1.55 1.48 1.42 1.40 1.38 1.33 1.30 1.26 1.23 1.22 1.22 1.21 1.19 1.13 1.09 1.07 1.06 1.03 1.00 1.04 1.09 1.10 1.09 1.09 1.10 1.13 1.18 1.19 1.17 1.15 1.14 1.11 1.09 1.05 1.02 1.00 0.98 0.96 0.93 0.91 0.91 0.93 0.98 1.01 1.03 1.02 1.00 0.99 0.99 0.97 0.97 0.96 1.00 1.05 1.12 1.13 1.13 1.11 1.08 1.07 1.10 1.14 1.16 1.24 1.31 1.42 1.55 1.64 1.69 1.72 1.70 1.60 1.48 1.42
1.86 1.87 1.89 1.91 1.90 1.87 1.85 1.79 1.73 1.67 1.60 1.52 1.46 1.42 1.40 1.40 1.42 1.44 1.33 1.25 1.19 1.17 1.17 1.18 1.18 1.15 1.10 1.07 1.03 1.00 1.04 1.11 1.14 1.13 1.12 1.13 1.17 1.21 1.22 1.21 1.19 1.15 1.10 1.07 1.04 1.01 0.99 0.98 0.97 0.93 0.92 0.92 0.93 0.97 1.01 1.06 1.04 1.01 0.99 0.98 0.98 0.96 0.92 0.98 1.07 1.13 1.14 1.15 1.14 1.13 1.14 1.17 1.17 1.21 1.28 1.38 1.46 1.56 1.57 1.49 1.46 1.57 1.45 1.33 1.36
1.94 1.94 1.93 1.94 1.93 1.92 1.91 1.87 1.78 1.73 1.68 1.57 1.51 1.51 1.53 1.53 1.50 1.52 1.41 1.31 1.22 1.18 1.19 1.20 1.22 1.21 1.15 1.09 1.07 1.02 1.02 1.09 1.13 1.13 1.14 1.16 1.20 1.21 1.24 1.22 1.18 1.14 1.09 1.08 1.06 1.02 0.98 0.97 0.97 0.95 0.92 0.90 0.93 0.98 1.01 1.06 1.03 0.99 0.97 0.94 0.91 0.88 0.85 0.91 1.00 1.07 1.14 1.16 1.15 1.15 1.18 1.23 1.25 1.28 1.31 1.35 1.43 1.53 1.48 1.34 1.49 1.54 1.42 1.38 1.28
1.95 1.97 1.97 2.01 2.02 2.01 1.97 1.93 1.86 1.80 1.74 1.68 1.66 1.62 1.60 1.57 1.57 1.58 1.53 1.47 1.36 1.29 1.25 1.22 1.21 1.22 1.21 1.18 1.15 1.10 1.07 1.10 1.13 1.13 1.14 1.17 1.23 1.27 1.27 1.24 1.17 1.11 1.07 1.03 1.05 1.02 0.98 0.98 0.99 0.98 0.94 0.91 0.93 0.97 1.00 1.05 1.02 0.98 0.96 0.95 0.89 0.83 0.78 0.83 0.89 0.94 1.01 1.04 1.07 1.14 1.19 1.26 1.35 1.37 1.34 1.34 1.43 1.53 1.56 1.55 1.61 1.54 1.41 1.38 1.36
1.95 1.98 2.03 2.07 2.06 2.04 1.99 1.93 1.88 1.83 1.77 1.76 1.76 1.72 1.73 1.73 1.70 1.62 1.58 1.57 1.50 1.41 1.32 1.26 1.21 1.20 1.23 1.24 1.21 1.18 1.14 1.13 1.14 1.15 1.15 1.18 1.23 1.27 1.29 1.23 1.14 1.08 1.06 1.01 0.97 1.00 1.00 0.99 0.99 0.97 0.94 0.92 0.92 0.94 0.97 1.03 1.04 1.03 1.05 0.99 0.91 0.81 0.85 0.92 0.95 0.97 1.00 1.05 1.08 1.15 1.20 1.29 1.32 1.31 1.28 1.31 1.41 1.52 1.57 1.62 1.64 1.60 1.48 1.42 1.39
2.02 1.97 1.93 1.95 1.99 2.01 2.00 1.93 1.85 1.81 1.80 1.81 1.85 1.86 1.85 1.80 1.78 1.74 1.66 1.64 1.61 1.54 1.42 1.33 1.28 1.26 1.28 1.28 1.26 1.24 1.21 1.17 1.16 1.16 1.17 1.19 1.22 1.25 1.26 1.21 1.16 1.11 1.06 1.02 0.98 0.95 0.96 0.97 0.97 0.97 0.95 0.94 0.94 0.95 0.98 1.04 1.09 1.10 1.10 1.05 0.99 0.93 1.02 1.03 1.02 1.09 1.09 1.12 1.15 1.18 1.21 1.23 1.23 1.23 1.24 1.31 1.41 1.51 1.59 1.65 1.69 1.67 1.55 1.43 1.35
2.04 1.98 1.94 1.92 1.89 1.89 1.91 1.92 1.91 1.86 1.85 1.85 1.83 1.84 1.89 1.91 1.88 1.84 1.80 1.74 1.68 1.63 1.57 1.45 1.37 1.33 1.33 1.33 1.31 1.28 1.28 1.26 1.22 1.19 1.19 1.20 1.21 1.25 1.26 1.22 1.19 1.14 1.09 1.05 1.04 1.03 1.00 0.99 0.97 0.96 0.96 0.97 0.98 1.01 1.07 1.12 1.16 1.20 1.16 1.14 1.14 1.14 1.13 1.14 1.14 1.15 1.17 1.19 1.18 1.17 1.17 1.17 1.16 1.17 1.23 1.32 1.43 1.53 1.61 1.66 1.68 1.66 1.62 1.55 1.43
2.12 2.05 1.96 1.90 1.87 1.86 1.86 1.85 1.81 1.83 1.85 1.85 1.81 1.78 1.85 1.88 1.88 1.89 1.85 1.81 1.77 1.73 1.69 1.60 1.49 1.40 1.38 1.37 1.37 1.36 1.34 1.33 1.30 1.24 1.22 1.21 1.21 1.23 1.24 1.23 1.22 1.24 1.16 1.08 1.05 1.04 1.05 1.04 1.02 1.01 1.00 1.01 1.03 1.06 1.11 1.17 1.23 1.24 1.21 1.22 1.24 1.26 1.28 1.27 1.24 1.21 1.20 1.21 1.19 1.14 1.13 1.14 1.13 1.16 1.24 1.33 1.46 1.57 1.63 1.67 1.67 1.64 1.61 1.60 1.56
2.13 2.09 2.02 1.96 1.88 1.83 1.83 1.82 1.80 1.80 1.82 1.85 1.83 1.77 1.77 1.80 1.85 1.88 1.88 1.85 1.81 1.77 1.77 1.72 1.63 1.52 1.43 1.40 1.41 1.41 1.41 1.40 1.36 1.30 1.25 1.23 1.21 1.21 1.22 1.23 1.25 1.24 1.24 1.17 1.13 1.13 1.10 1.08 1.07 1.05 1.05 1.07 1.10 1.13 1.15 1.18 1.19 1.20 1.22 1.26 1.31 1.37 1.38 1.35 1.30 1.26 1.24 1.22 1.17 1.14 1.12 1.17 1.21 1.25 1.31 1.45 1.54 1.62 1.66 1.67 1.65 1.64 1.57 1.53 1.53
1.93 1.95 1.95 1.91 1.87 1.83 1.78 1.75 1.75 1.74 1.77 1.82 1.81 1.78 1.76 1.77 1.77 1.85 1.89 1.88 1.83 1.77 1.77 1.78 1.69 1.61 1.55 1.48 1.45 1.45 1.46 1.46 1.43 1.38 1.31 1.26 1.24 1.22 1.21 1.22 1.24 1.27 1.26 1.25 1.25 1.22 1.18 1.16 1.14 1.13 1.13 1.15 1.18 1.22 1.25 1.26 1.27 1.26 1.26 1.27 1.31 1.33 1.32 1.32 1.30 1.28 1.21 1.17 1.16 1.18 1.20 1.24 1.31 1.40 1.54 1.61 1.64 1.63 1.58 1.59 1.61 1.56 1.49 1.51 1.59
1.67 1.73 1.80 1.85 1.86 1.82 1.75 1.69 1.69 1.71 1.75 1.80 1.80 1.80 1.79 1.80 1.78 1.82 1.88 1.87 1.83 1.78 1.77 1.78 1.73 1.68 1.60 1.56 1.52 1.51 1.52 1.50 1.47 1.44 1.39 1.33 1.29 1.26 1.23 1.23 1.24 1.27 1.28 1.26 1.25 1.25 1.24 1.23 1.23 1.21 1.21 1.22 1.25 1.25 1.25 1.29 1.33 1.37 1.37 1.38 1.36 1.34 1.33 1.31 1.31 1.27 1.20 1.22 1.24 1.23 1.28 1.39 1.45 1.55 1.63 1.63 1.54 1.45 1.44 1.44 1.44 1.41 1.47 1.52 1.56
1.50 1.57 1.67 1.76 1.83 1.84 1.73 1.65 1.62 1.66 1.71 1.76 1.80 1.82 1.84 1.85 1.84 1.85 1.86 1.84 1.81 1.78 1.77 1.75 1.71 1.67 1.60 1.58 1.58 1.60 1.60 1.56 1.50 1.46 1.43 1.37 1.31 1.28 1.26 1.25 1.28 1.30 1.31 1.28 1.28 1.29 1.28 1.28 1.27 1.26 1.27 1.29 1.31 1.33 1.34 1.38 1.40 1.42 1.44 1.44 1.44 1.46 1.48 1.45 1.40 1.35 1.33 1.33 1.32 1.35 1.44 1.51 1.57 1.55 1.51 1.47 1.40 1.40 1.43 1.44 1.43 1.46 1.50 1.54 1.56
1.44 1.47 1.54 1.67 1.76 1.78 1.72 1.66 1.61 1.58 1.60 1.64 1.69 1.77 1.83 1.85 1.83 1.81 1.80 1.79 1.77 1.75 1.75 1.72 1.68 1.65 1.61 1.62 1.64 1.64 1.61 1.59 1.54 1.45 1.41 1.36 1.31 1.30 1.28 1.25 1.24 1.22 1.20 1.21 1.23 1.27 1.29 1.29 1.29 1.29 1.30 1.29 1.30 1.31 1.33 1.37 1.40 1.44 1.47 1.51 1.53 1.57 1.59 1.60 1.58 1.52 1.47 1.46 1.45 1.49 1.50 1.50 1.44 1.44 1.46 1.42 1.40 1.44 1.50 1.52 1.53 1.58 1.65 1.67 1.59
1.38 1.43 1.51 1.57 1.65 1.71 1.67 1.62 1.60 1.58 1.57 1.59 1.63 1.68 1.69 1.74 1.77 1.81 1.88 1.91 1.87 1.79 1.75 1.74 1.75 1.76 1.75 1.71 1.66 1.60 1.58 1.53 1.50 1.51 1.45 1.38 1.32 1.29 1.26 1.21 1.18 1.17 1.17 1.18 1.23 1.29 1.29 1.25 1.23 1.23 1.23 1.22 1.25 1.30 1.35 1.42 1.50 1.59 1.63 1.64 1.64 1.64 1.63 1.59 1.50 1.50 1.55 1.54 1.49 1.49 1.49 1.47 1.46 1.49 1.48 1.45 1.46 1.52 1.61 1.62 1.69 1.72 1.73 1.67 1.55
1.31 1.35 1.44 1.50 1.55 1.59 1.58 1.56 1.55 1.54 1.55 1.56 1.60 1.67 1.76 1.77 1.78 1.75 1.79 1.90 1.93 1.93 1.89 1.81 1.82 1.85 1.81 1.79 1.77 1.64 1.54 1.53 1.60 1.65 1.59 1.50 1.43 1.40 1.35 1.29 1.24 1.20 1.20 1.24 1.31 1.29 1.28 1.28 1.28 1.29 1.30 1.31 1.30 1.34 1.42 1.51 1.60 1.67 1.74 1.80 1.80 1.75 1.71 1.71 1.72 1.72 1.70 1.63 1.59 1.58 1.56 1.55 1.51 1.51 1.49 1.47 1.51 1.59 1.68 1.70 1.71 1.73 1.64 1.58 1.54
1.27 1.33 1.37 1.43 1.52 1.55 1.53 1.50 1.51 1.49 1.50 1.53 1.58 1.58 1.61 1.72 1.82 1.87 1.90 1.93 1.94 1.94 1.94 1.93 1.94 1.93 1.86 1.77 1.80 1.81 1.74 1.71 1.71 1.69 1.65 1.61 1.53 1.48 1.45 1.40 1.34 1.31 1.34 1.36 1.33 1.29 1.28 1.27 1.29 1.34 1.37 1.41 1.43 1.46 1.55 1.62 1.68 1.74 1.78 1.82 1.85 1.83 1.85 1.89 1.96 1.81 1.78 1.82 1.83 1.75 1.68 1.61 1.57 1.57 1.56 1.58 1.62 1.70 1.77 1.76 1.69 1.60 1.57 1.54 1.48
1.20 1.29 1.36 1.41 1.48 1.52 1.52 1.49 1.49 1.50 1.52 1.57 1.59 1.57 1.56 1.56 1.66 1.82 1.90 1.94 1.97 1.98 1.96 1.96 1.96 1.94 1.91 1.86 1.81 1.78 1.76 1.72 1.69 1.65 1.62 1.58 1.53 1.51 1.49 1.46 1.43 1.42 1.44 1.45 1.34 1.30 1.34 1.33 1.34 1.39 1.45 1.47 1.50 1.57 1.64 1.70 1.76 1.79 1.83 1.84 1.85 1.91 1.95 1.74 1.72 1.78 1.84 1.91 1.95 1.89 1.78 1.74 1.72 1.71 1.72 1.72 1.74 1.74 1.74 1.68 1.59 1.52 1.49 1.47 1.44
1.21 1.29 1.36 1.40 1.45 1.48 1.50 1.48 1.47 1.50 1.52 1.54 1.55 1.56 1.52 1.50 1.48 1.55 1.74 1.86 1.94 1.97 1.98 1.97 1.96 1.93 1.89 1.87 1.86 1.82 1.78 1.77 1.73 1.66 1.60 1.55 1.53 1.53 1.53 1.52 1.51 1.52 1.51 1.43 1.34 1.32 1.38 1.41 1.43 1.49 1.53 1.52 1.57 1.64 1.71 1.78 1.83 1.88 1.93 1.97 1.93 1.95 1.85 1.75 1.85 1.83 1.86 1.89 1.92 1.81 1.73 1.74 1.76 1.76 1.76 1.77 1.72 1.66 1.63 1.56 1.49 1.45 1.44 1.38 1.33
1.21 1.28 1.35 1.42 1.43 1.45 1.46 1.48 1.49 1.49 1.48 1.44 1.40 1.39 1.42 1.45 1.47 1.55 1.60 1.69 1.79 1.87 1.93 1.95 1.93 1.89 1.86 1.87 1.88 1.88 1.87 1.82 1.75 1.67 1.58 1.54 1.54 1.56 1.57 1.56 1.55 1.54 1.50 1.40 1.37 1.35 1.41 1.46 1.53 1.58 1.62 1.65 1.67 1.74 1.78 1.85 1.95 2.03 2.10 2.00 2.02 2.04 1.95 1.89 1.85 1.89 1.89 1.88 1.88 1.84 1.79 1.80 1.83 1.80 1.77 1.75 1.72 1.65 1.58 1.53 1.50 1.44 1.38 1.30 1.17
1.18 1.26 1.35 1.43 1.45 1.46 1.50 1.52 1.49 1.50 1.55 1.56 1.52 1.46 1.46 1.53 1.56 1.61 1.65 1.68 1.67 1.62 1.66 1.82 1.88 1.86 1.85 1.88 1.90 1.93 1.91 1.83 1.74 1.63 1.57 1.55 1.56 1.59 1.57 1.48 1.41 1.41 1.42 1.41 1.44 1.49 1.54 1.58 1.59 1.62 1.67 1.68 1.75 1.84 1.93 2.02 2.15 1.98 1.87 1.92 2.01 2.03 2.01 1.86 1.80 1.81 1.82 1.87 1.89 1.85 1.81 1.78 1.81 1.79 1.73 1.67 1.64 1.61 1.59 1.53 1.47 1.41 1.30 1.18 1.11
1.16 1.21 1.31 1.39 1.44 1.48 1.50 1.57 1.65 1.63 1.61 1.62 1.60 1.56 1.57 1.60 1.62 1.64 1.72 1.78 1.77 1.72 1.66 1.72 1.76 1.80 1.87 1.89 1.92 1.95 1.91 1.79 1.66 1.60 1.58 1.60 1.60 1.58 1.45 1.39 1.37 1.38 1.38 1.44 1.53 1.59 1.64 1.65 1.68 1.73 1.80 1.87 1.97 2.01 2.12 2.01 1.92 1.99 2.11 2.09 2.06 1.99 1.90 1.85 1.82 1.83 1.87 1.87 1.86 1.84 1.80 1.80 1.81 1.80 1.78 1.72 1.64 1.58 1.52 1.45 1.38 1.31 1.24 1.18 1.17
1.16 1.18 1.27 1.37 1.45 1.49 1.53 1.60 1.67 1.72 1.68 1.64 1.67 1.74 1.78 1.78 1.74 1.74 1.75 1.74 1.74 1.74 1.68 1.69 1.76 1.80 1.89 1.94 1.97 1.92 1.79 1.69 1.65 1.63 1.63 1.63 1.65 1.63 1.54 1.48 1.45 1.46 1.47 1.52 1.63 1.76 1.80 1.81 1.86 1.87 1.91 1.98 2.01 1.97 1.94 1.88 2.05 2.15 2.07 2.03 1.95 1.86 1.86 1.89 1.89 1.87 1.84 1.81 1.80 1.81 1.82 1.81 1.81 1.79 1.73 1.63 1.56 1.49 1.41 1.31 1.24 1.21 1.21 1.21 1.24
1.20 1.17 1.21 1.34 1.43 1.51 1.57 1.69 1.83 1.79 1.76 1.78 1.70 1.68 1.74 1.78 1.82 1.80 1.74 1.74 1.76 1.72 1.62 1.62 1.77 1.78 1.72 1.76 1.82 1.72 1.70 1.74 1.75 1.70 1.68 1.65 1.62 1.59 1.59 1.59 1.60 1.58 1.63 1.69 1.77 1.85 1.84 1.88 1.93 1.93 2.07 2.14 2.00 1.96 2.03 2.01 2.14 2.05 1.96 1.89 1.77 1.70 1.75 1.80 1.84 1.84 1.81 1.78 1.74 1.71 1.71 1.73 1.72 1.67 1.63 1.58 1.50 1.42 1.36 1.30 1.27 1.24 1.26 1.28 1.30
1.23 1.22 1.22 1.30 1.42 1.50 1.56 1.73 1.92 1.98 2.00 1.84 1.65 1.62 1.67 1.72 1.68 1.74 1.78 1.79 1.77 1.73 1.64 1.61 1.74 1.81 1.75 1.71 1.67 1.73 1.77 1.74 1.69 1.63 1.64 1.66 1.68 1.71 1.71 1.72 1.73 1.74 1.84 1.89 1.80 1.81 1.77 1.81 1.92 1.94 1.94 2.02 2.04 2.10 2.01 2.00 1.97 1.87 1.83 1.78 1.74 1.68 1.68 1.77 1.86 1.91 1.85 1.79 1.76 1.76 1.75 1.74 1.69 1.63 1.58 1.54 1.49 1.44 1.38 1.34 1.32 1.29 1.23 1.20 1.20
1.21 1.24 1.26 1.29 1.39 1.47 1.47 1.55 1.72 1.82 1.93 1.87 1.86 1.85 1.80 1.78 1.71 1.65 1.71 1.78 1.73 1.69 1.64 1.59 1.73 1.90 1.86 1.65 1.53 1.64 1.71 1.72 1.71 1.71 1.71 1.71 1.73 1.76 1.79 1.80 1.83 1.85 1.88 1.93 1.92 1.88 1.83 1.86 1.94 1.96 1.99 2.00 2.01 1.99 1.98 1.89 1.82 1.77 1.73 1.73 1.70 1.67 1.75 1.80 1.80 1.79 1.82 1.85 1.79 1.71 1.70 1.64 1.58 1.53 1.54 1.55 1.48 1.42 1.38 1.37 1.33 1.27 1.20 1.16 1.16
1.22 1.23 1.25 1.28 1.34 1.43 1.47 1.50 1.64 1.78 1.77 1.76 1.78 1.81 1.87 1.88 1.90 1.93 1.92 1.87 1.81 1.73 1.68 1.64 1.73 1.93 1.95 1.74 1.56 1.60 1.71 1.76 1.78 1.80 1.79 1.78 1.79 1.79 1.81 1.83 1.87 1.88 1.86 1.95 2.02 1.94 1.91 1.97 1.98 1.97 1.94 1.91 1.88 1.86 1.82 1.78 1.77 1.77 1.76 1.76 1.74 1.75 1.78 1.77 1.84 1.85 1.84 1.75 1.67 1.65 1.70 1.68 1.63 1.51 1.44 1.41 1.39 1.36 1.34 1.32 1.28 1.24 1.21 1.18 1.17
1.27 1.26 1.26 1.28 1.30 1.34 1.40 1.44 1.51 1.70 1.79 1.86 1.87 1.87 1.86 1.89 1.91 1.96 1.98 1.86 1.80 1.72 1.64 1.65 1.75 1.88 1.93 1.85 1.61 1.60 1.68 1.75 1.84 1.86 1.85 1.85 1.84 1.84 1.83 1.83 1.84 1.85 1.84 1.84 1.84 1.90 1.98 1.92 1.86 1.79 1.70 1.65 1.74 1.74 1.70 1.67 1.68 1.69 1.71 1.70 1.68 1.68 1.68 1.66 1.67 1.67 1.63 1.55 1.54 1.53 1.53 1.53 1.49 1.42 1.37 1.32 1.29 1.27 1.24 1.21 1.20 1.19 1.18 1.18 1.17
1.29 1.30 1.31 1.34 1.35 1.31 1.30 1.36 1.42 1.49 1.67 1.81 1.88 1.93 1.93 1.95 1.94 1.91 1.89 1.89 1.81 1.71 1.65 1.67 1.72 1.80 1.86 1.85 1.65 1.60 1.64 1.69 1.77 1.83 1.84 1.83 1.84 1.84 1.84 1.83 1.83 1.82 1.78 1.79 1.80 1.79 1.78 1.76 1.73 1.75 1.81 1.84 1.78 1.68 1.66 1.63 1.62 1.64 1.65 1.64 1.63 1.61 1.61 1.65 1.63 1.57 1.49 1.47 1.49 1.47 1.44 1.41 1.37 1.35 1.33 1.29 1.24 1.19 1.18 1.19 1.21 1.22 1.22 1.21 1.19
1.31 1.30 1.33 1.36 1.40 1.42 1.37 1.34 1.35 1.39 1.45 1.62 1.83 1.92 1.86 1.86 1.86 1.91 1.92 1.86 1.81 1.75 1.72 1.74 1.76 1.77 1.80 1.78 1.66 1.60 1.61 1.68 1.76 1.81 1.79 1.83 1.82 1.81 1.81 1.80 1.78 1.75 1.74 1.75 1.76 1.78 1.81 1.82 1.80 1.78 1.72 1.65 1.61 1.60 1.57 1.54 1.52 1.52 1.56 1.56 1.51 1.50 1.49 1.48 1.44 1.43 1.47 1.49 1.49 1.44 1.42 1.39 1.34 1.31 1.27 1.22 1.19 1.17 1.18 1.21 1.22 1.21 1.20 1.19 1.19
1.34 1.34 1.34 1.36 1.40 1.41 1.41 1.35 1.30 1.32 1.39 1.50 1.61 1.71 1.72 1.75 1.71 1.76 1.81 1.82 1.81 1.77 1.76 1.77 1.80 1.84 1.83 1.80 1.68 1.60 1.60 1.64 1.72 1.75 1.79 1.81 1.81 1.81 1.78 1.76 1.73 1.70 1.70 1.70 1.70 1.68 1.63 1.56 1.55 1.68 1.73 1.66 1.55 1.55 1.59 1.61 1.63 1.77 1.78 1.66 1.44 1.35 1.37 1.44 1.55 1.58 1.54 1.42 1.36 1.40 1.38 1.33 1.27 1.24 1.22 1.21 1.21 1.21 1.19 1.18 1.17 1.17 1.17 1.18 1.18
1.33 1.36 1.38 1.36 1.37 1.41 1.41 1.38 1.34 1.33 1.37 1.43 1.47 1.49 1.55 1.64 1.73 1.77 1.84 1.77 1.73 1.70 1.73 1.78 1.76 1.77 1.76 1.76 1.70 1.56 1.50 1.53 1.63 1.75 1.76 1.74 1.75 1.74 1.72 1.69 1.67 1.67 1.67 1.66 1.64 1.61 1.58 1.62 1.66 1.64 1.60 1.52 1.43 1.44 1.49 1.51 1.51 1.48 1.41 1.33 1.31 1.38 1.47 1.48 1.49 1.51 1.52 1.47 1.36 1.33 1.31 1.27 1.25 1.25 1.24 1.23 1.22 1.21 1.19 1.20 1.21 1.21 1.21 1.20 1.20
1.38 1.37 1.37 1.43 1.45 1.45 1.43 1.37 1.33 1.30 1.30 1.35 1.36 1.38 1.44 1.53 1.66 1.71 1.70 1.67 1.69 1.74 1.78 1.75 1.68 1.64 1.67 1.69 1.60 1.50 1.50 1.56 1.71 1.75 1.73 1.79 1.80 1.78 1.79 1.75 1.73 1.73 1.69 1.65 1.61 1.56 1.52 1.50 1.47 1.44 1.37 1.33 1.33 1.35 1.36 1.37 1.38 1.36 1.33 1.36 1.46 1.51 1.57 1.58 1.43 1.35 1.32 1.34 1.33 1.29 1.27 1.25 1.25 1.25 1.25 1.24 1.23 1.21 1.19 1.19 1.19 1.20 1.22 1.23 1.22
1.37 1.43 1.45 1.48 1.52 1.53 1.48 1.42 1.35 1.33 1.36 1.35 1.37 1.42 1.46 1.54 1.67 1.71 1.72 1.71 1.74 1.74 1.69 1.71 1.69 1.67 1.69 1.71 1.65 1.60 1.64 1.65 1.66 1.73 1.68 1.69 1.68 1.62 1.56 1.54 1.51 1.48 1.46 1.44 1.40 1.37 1.33 1.30 1.28 1.29 1.30 1.31 1.31 1.31 1.30 1.31 1.33 1.35 1.36 1.34 1.29 1.30 1.34 1.37 1.39 1.38 1.35 1.34 1.35 1.33 1.30 1.27 1.24 1.21 1.20 1.20 1.20 1.20 1.19 1.18 1.19 1.19 1.18 1.18 1.19
1.36 1.43 1.44 1.47 1.50 1.53 1.54 1.46 1.37 1.38 1.32 1.34 1.41 1.43 1.45 1.48 1.55 1.67 1.73 1.72 1.69 1.67 1.68 1.67 1.65 1.69 1.73 1.69 1.65 1.64 1.64 1.62 1.62 1.65 1.65 1.59 1.51 1.45 1.40 1.38 1.37 1.36 1.35 1.32 1.29 1.27 1.26 1.26 1.26 1.26 1.26 1.27 1.28 1.29 1.30 1.31 1.30 1.31 1.33 1.36 1.39 1.41 1.43 1.42 1.39 1.37 1.35 1.35 1.32 1.30 1.26 1.23 1.21 1.19 1.18 1.15 1.14 1.13 1.11 1.10 1.10 1.10 1.12 1.14 1.16
1.26 1.43 1.47 1.48 1.46 1.47 1.50 1.53 1.47 1.41 1.42 1.39 1.30 1.36 1.44 1.49 1.51 1.50 1.58 1.67 1.69 1.68 1.68 1.66 1.62 1.62 1.64 1.60 1.55 1.57 1.59 1.60 1.57 1.54 1.53 1.47 1.43 1.40 1.38 1.36 1.36 1.34 1.32 1.30 1.29 1.28 1.28 1.28 1.29 1.29 1.29 1.30 1.32 1.33 1.32 1.30 1.26 1.25 1.28 1.33 1.34 1.31 1.30 1.32 1.36 1.37 1.35 1.33 1.29 1.27 1.25 1.23 1.21 1.19 1.19 1.19 1.18 1.17 1.15 1.13 1.10 1.09 1.09 1.09 1.08
1.22 1.26 1.36 1.44 1.47 1.51 1.47 1.44 1.56 1.57 1.50 1.46 1.40 1.39 1.40 1.45 1.45 1.47 1.51 1.54 1.57 1.60 1.64 1.64 1.62 1.60 1.59 1.58 1.56 1.56 1.54 1.52 1.51 1.48 1.46 1.45 1.44 1.43 1.41 1.39 1.37 1.36 1.34 1.33 1.33 1.33 1.31 1.29 1.28 1.28 1.28 1.29 1.28 1.27 1.27 1.31 1.36 1.44 1.41 1.41 1.40 1.42 1.41 1.39 1.35 1.34 1.32 1.30 1.26 1.24 1.21 1.19 1.17 1.14 1.13 1.12 1.11 1.10 1.09 1.07 1.05 1.03 1.01 0.98 0.96
Wind_Speed
29 29 28 28 28 28 27 27 27 27 27 26 26 26 25 24 23 22 21 21 21 20 19 18 17 17 16 15 14 14 13 13 12 12 11 10 9 9 8 8 7 7 6 6 5 5 5 5 5 4 4 5 6 6 7 7 8 8 7 7 7 7 6 6 6 6 5 4 4 4 4 4 5 6 7 8 9 9 10 11 11 11 11 11 11
29 29 29 29 29 28 28 27 27 27 27 27 27 26 26 25 24 24 23 22 22 21 21 20 19 18 18 17 16 15 15 14 13 13 12 11 11 10 9 9 8 8 8 7 7 6 6 6 6 5 5 5 6 6 7 7 7 8 8 7 7 7 7 7 7 7 6 5 5 5 5 5 6 7 8 9 9 9 10 11 11 10 11 11 11
29 29 29 29 29 29 29 28 28 28 28 27 27 27 26 26 25 25 24 23 23 22 22 21 20 19 19 18 18 17 16 15 15 14 13 13 12 11 10 10 9 9 9 9 8 8 8 7 7 7 7 7 7 7 7 8 8 8 8 8 8 8 8 8 8 8 8 7 6 6 6 6 7 8 8 9 9 10 10 10 11 10 11 12 11
30 29 29 29 30 30 30 29 29 28 28 28 28 28 27 26 26 26 25 25 24 23 22 22 21 21 20 19 19 18 18 17 16 15 15 14 14 13 12 12 11 10 10 10 10 9 9 9 9 8 8 8 8 8 9 9 9 9 9 8 9 9 9 9 9 9 9 9 8 8 7 8 8 9 9 9 10 10 10 10 11 11 12 12 11
30 30 30 30 30 30 30 30 30 29 29 29 28 28 28 27 27 26 26 26 25 24 24 23 23 22 22 21 20 20 19 19 18 17 16 16 15 14 14 13 13 12 11 11 11 11 11 10 10 10 9 9 10 10 10 10 10 10 10 10 10 9 9 10 10 10 11 11 10 10 9 9 9 10 9 10 10 11 10 11 11 11 12 12 11
30 30 31 30 30 30 30 30 30 30 30 30 29 29 28 28 28 27 27 26 26 25 25 24 24 23 23 22 22 21 21 20 19 19 18 17 16 16 15 14 14 14 13 12 12 12 12 12 12 11 11 11 11 11 11 12 12 12 11 11 11 10 10 10 11 11 12 12 12 12 11 11 11 11 10 10 11 11 11 11 11 11 12 12 11
30 30 31 31 31 31 30 30 30 31 31 30 30 29 29 29 29 28 28 27 27 26 26 25 25 24 24 23 23 23 22 21 21 20 19 19 18 17 16 16 15 15 14 14 13 13 13 13 13 13 13 13 13 13 13 13 13 13 13 13 12 12 12 12 12 12 12 13 13 13 12 12 12 12 11 11 11 11 11 11 11 11 12 11 11
29 29 30 31 31 31 31 31 30 30 31 31 31 30 30 29 29 29 29 28 28 27 27 26 26 25 25 24 24 24 24 23 22 22 21 20 20 19 18 18 17 16 16 15 15 15 14 14 14 14 14 14 14 14 14 14 14 14 14 14 14 14 13 13 13 13 13 13 13 13 13 13 13 13 13 12 12 12 11 11 12 12 12 12 13
28 28 29 30 31 31 31 31 31 30 31 31 31 31 31 30 30 30 29 29 29 28 28 27 27 26 26 25 25 25 25 25 24 23 23 22 21 21 20 20 19 18 18 17 17 16 16 15 15 15 15 15 16 16 16 15 15 15 15 15 15 15 15 15 14 14 13 13 13 13 13 14 14 14 14 13 13 12 12 12 12 12 12 13 13
28 28 28 29 29 30 31 31 31 31 31 31 31 31 31 31 31 30 30 30 29 29 29 28 28 27 27 26 26 25 25 25 26 25 25 23 23 22 22 21 21 20 20 19 19 18 17 16 16 16 16 16 17 17 17 17 17 17 17 16 16 16 16 16 16 15 14 14 14 13 14 14 15 15 15 14 13 13 12 12 12 13 13 14 14
28 28 28 28 28 29 30 31 31 31 31 31 31 31 31 31 31 31 31 30 30 30 29 29 29 28 28 27 27 26 26 26 26 26 26 25 24 23 23 23 22 22 21 21 20 20 19 18 17 17 17 17 17 17 18 18 18 18 18 18 17 17 17 17 17 16 16 15 15 15 14 15 15 15 15 15 14 13 12 12 13 13 14 14 14
29 29 28 28 28 28 29 30 30 31 31 31 31 31 31 31 31 31 31 31 30 30 30 30 29 29 28 28 27 27 27 27 27 27 27 26 26 25 24 24 23 23 23 22 22 21 20 19 19 18 18 18 18 17 18 18 19 19 19 19 19 19 18 18 18 17 17 17 16 16 15 16 16 15 15 15 14 13 13 13 14 14 14 14 14
29 29 28 28 27 27 27 28 29 30 30 31 31 31 31 31 31 31 31 31 31 30 30 30 30 29 29 28 28 28 27 28 28 28 27 27 27 26 25 25 24 24 24 23 23 22 22 21 20 19 18 18 18 18 18 18 18 19 19 20 20 20 20 20 19 19 18 18 18 18 17 16 16 15 15 14 14 14 14 14 15 15 15 15 15
30 30 29 28 27 27 26 27 27 29 30 30 30 31 31 31 31 31 31 31 31 31 30 30 30 30 30 29 28 28 28 28 28 28 28 28 27 27 26 26 25 25 24 24 24 23 23 22 21 20 20 19 19 19 18 18 18 19 19 20 20 21 21 21 21 20 19 19 19 19 18 17 16 16 15 15 15 15 15 15 15 16 16 16 16
30 30 30 29 28 27 27 27 27 28 29 29 29 30 30 30 31 31 31 31 31 31 31 31 30 30 30 29 29 28 28 28 29 29 29 28 28 27 26 26 26 26 25 25 24 24 24 23 23 22 21 21 20 20 19 19 19 19 20 20 20 21 21 21 21 21 20 20 19 20 19 18 17 17 16 15 16 15 15 15 16 16 16 16 17
31 31 31 31 30 29 29 28 28 28 28 29 29 29 29 29 30 30 31 31 31 31 31 31 31 31 30 30 30 29 29 29 29 29 29 29 28 27 27 26 26 26 26 26 25 25 24 24 24 23 22 22 21 21 21 20 20 20 21 21 21 21 21 21 21 22 21 21 20 20 20 19 19 18 17 17 17 16 16 16 16 16 16 17 17
31 32 32 32 31 30 30 29 29 29 29 29 28 28 28 29 29 29 30 30 30 31 31 31 31 31 31 30 30 29 29 29 29 29 29 29 28 27 27 27 26 26 26 26 26 26 25 25 24 24 24 23 23 22 22 21 21 21 21 21 21 21 21 21 21 22 22 22 22 21 21 20 20 19 19 18 18 18 17 17 17 17 17 18 18
30 31 32 33 32 32 31 30 30 30 29 29 29 29 29 28 28 29 29 29 29 30 30 30 30 30 31 30 30 30 29 29 29 30 30 30 29 28 27 27 26 26 26 26 26 26 26 26 26 25 25 24 24 24 23 22 22 22 22 21 22 22 22 21 21 21 22 22 22 22 22 21 21 20 20 19 19 19 18 19 19 18 19 19 18
31 31 32 32 33 33 32 32 31 31 30 30 30 30 29 29 29 28 29 29 28 28 29 29 30 30 30 30 30 30 29 29 29 30 30 30 30 29 28 27 27 27 26 26 26 26 27 27 27 27 26 26 25 25 24 23 22 22 22 22 22 22 22 21 21 21 22 22 22 22 22 21 21 21 21 20 20 20 20 20 19 19 20 20 19
32 32 32 33 33 34 34 33 32 31 31 31 30 30 30 30 29 29 29 29 28 28 28 28 29 29 29 30 30 30 29 29 29 30 30 30 30 30 29 28 28 28 27 26 26 26 26 27 27 28 28 27 26 26 25 24 24 23 22 22 22 22 21 21 22 22 22 22 22 22 22 21 21 21 21 20 20 20 20 20 20 20 20 20 19
30 31 32 32 33 34 35 34 34 33 32 32 32 31 31 30 30 30 30 29 29 29 29 28 28 28 28 29 29 29 30 29 29 29 30 30 30 30 29 29 29 29 28 28 27 27 27 27 27 27 27 27 27 26 26 25 25 24 24 23 23 23 22 22 22 22 23 23 23 22 22 22 22 21 21 20 20 19 20 20 20 20 20 20 20
28 29 30 32 32 33 35 35 35 34 33 33 33 32 31 31 31 31 30 30 30 30 29 29 28 28 28 28 28 29 29 30 29 29 30 30 30 30 30 30 29 29 29 29 28 28 27 27 27 27 27 27 27 27 26 26 25 25 25 25 25 24 24 23 23 23 23 23 23 23 23 22 22 21 21 20 20 20 20 20 21 21 21 21 21
26 28 29 30 31 32 34 35 35 34 33 34 34 33 33 32 32 32 31 31 30 30 30 29 29 28 28 28 28 28 29 29 29 30 30 30 30 30 31 31 30 30 29 29 29 29 28 28 28 28 28 28 28 27 27 27 26 26 26 26 26 26 25 25 25 24 24 24 24 23 23 23 23 22 21 21 21 21 21 21 21 21 21 22 22
27 28 29 29 30 31 32 34 35 35 34 34 35 35 34 33 33 32 32 32 31 30 30 30 29 29 28 28 28 28 28 29 29 30 30 31 31 31 31 31 31 31 30 30 30 29 29 29 29 29 29 28 28 28 28 28 27 27 27 27 27 26 26 26 26 25 25 24 24 24 24 24 23 22 22 22 22 22 22 22 22 22 22 22 23
28 28 29 30 30 31 32 34 35 36 35 35 35 35 35 34 33 33 33 33 32 31 31 30 30 29 29 28 28 28 28 29 29 30 30 31 31 31 31 32 32 32 31 31 31 30 30 30 30 30 30 29 29 28 28 28 28 28 28 27 27 27 27 27 26 26 25 24 24 24 24 24 23 23 23 23 23 23 23 22 22 22 22 22 23
29 29 29 30 31 32 33 34 35 36 36 36 36 36 35 35 35 34 34 34 34 33 32 31 31 30 30 29 29 28 29 29 29 29 30 31 31 32 32 32 32 32 32 32 32 32 32 31 31 30 30 29 29 28 28 28 28 28 27 27 26 26 26 25 25 25 25 25 24 24 24 23 23 23 23 23 23 23 23 22 22 22 22 23 23
29 29 29 30 30 32 33 34 34 35 36 36 36 36 36 36 35 35 35 35 34 34 33 32 32 31 30 30 29 29 29 29 29 29 29 30 31 31 32 31 31 31 32 32 32 32 31 31 30 30 30 29 29 28 28 28 27 27 26 26 26 26 25 25 24 24 25 25 24 24 24 23 23 23 23 23 23 23 23 22 22 22 23 23 22
30 30 29 30 30 32 33 34 34 35 36 36 36 36 36 36 36 36 36 36 35 35 35 34 33 33 32 31 31 30 29 29 29 30 30 30 31 31 31 31 31 31 31 31 31 30 30 30 29 29 29 29 29 28 28 28 27 27 26 26 26 25 25 24 24 24 24 24 24 24 23 23 23 23 23 23 23 23 23 23 23 23 24 23 22
32 31 30 30 31 32 33 33 34 35 36 36 36 36 36 36 37 37 37 37 37 37 36 35 34 34 34 34 33 32 31 30 31 31 31 32 31 31 31 31 31 30 30 30 30 30 29 29 29 29 29 29 29 28 28 28 27 27 27 26 26 25 25 24 24 24 24 24 24 24 23 23 23 23 23 23 23 23 23 23 23 23 23 22 21
33 33 32 31 32 33 33 34 34 36 36 36 36 36 35 36 37 37 37 38 38 38 37 36 35 35 35 35 35 34 33 32 32 32 32 32 32 32 32 32 31 31 30 30 30 29 29 29 29 29 29 29 29 29 28 28 28 27 27 26 26 25 25 24 24 24 24 23 23 23 22 22 23 23 23 23 23 23 23 23 23 23 22 21 20
34 33 32 32 32 33 34 35 35 36 37 37 37 36 36 35 36 36 37 37 38 38 37 37 36 35 35 35 35 35 35 34 33 33 33 33 33 33 33 32 32 31 31 30 30 30 30 30 30 30 30 30 30 30 30 29 29 28 28 27 26 25 23 22 22 22 22 22 22 21 21 22 22 23 23 22 22 23 23 23 22 22 21 21 21
34 34 33 32 32 33 35 35 36 37 38 38 38 38 37 36 36 36 36 36 37 37 37 37 36 36 36 35 35 35 35 34 34 33 33 34 34 34 33 33 33 32 32 31 31 31 31 31 31 30 30 30 31 31 31 31 30 30 29 28 26 23 21 20 21 21 22 22 22 22 22 22 22 22 22 22 23 23 22 22 21 21 20 21 21
35 35 34 33 33 34 35 36 37 38 39 39 39 39 39 38 37 36 35 35 35 35 36 36 36 36 36 36 36 35 35 35 34 34 34 34 34 34 34 33 33 33 32 31 32 31 31 31 31 31 31 31 31 32 32 32 32 30 29 26 24 21 19 19 20 21 21 22 23 23 23 23 24 23 22 22 22 22 21 21 21 20 20 20 20
35 35 36 35 34 34 35 37 38 40 40 40 40 40 40 39 39 38 37 35 34 34 34 35 35 36 35 35 36 36 35 35 35 35 35 35 35 34 33 33 32 32 32 32 32 32 32 31 31 31 32 32 32 32 32 31 30 28 25 24 23 22 20 19 20 21 22 22 23 23 23 23 23 23 22 22 22 22 21 21 21 21 21 20 20
35 35 36 37 36 36 36 37 39 41 41 41 41 41 41 40 40 39 38 37 36 36 35 35 35 35 35 35 35 35 35 35 35 35 35 35 34 34 33 33 32 33 33 33 33 32 32 32 31 32 32 33 32 32 30 28 27 26 24 24 24 23 21 20 20 21 21 22 22 22 21 21 21 22 23 23 23 22 22 22 22 22 21 21 21
35 35 36 37 37 37 37 37 39 40 40 40 41 41 41 41 41 40 39 39 38 37 36 35 35 34 34 34 34 34 35 35 35 34 34 34 34 34 33 33 33 33 33 33 33 33 32 31 31 31 32 32 31 30 28 27 27 26 24 23 23 23 22 22 21 21 21 21 21 21 21 21 21 23 24 24 24 23 23 23 22 22 22 22 22
35 35 36 36 36 36 36 37 38 39 40 39 39 39 39 39 39 39 39 39 39 37 36 35 35 34 34 33 33 33 33 33 33 33 33 34 34 34 34 33 33 34 34 33 32 32 30 30 30 31 31 31 29 28 28 27 26 25 23 22 23 23 23 22 22 21 21 21 21 21 22 22 22 22 23 23 23 23 23 23 23 23 23 23 23
36 36 36 37 37 36 36 37 38 39 40 40 39 39 39 39 39 39 39 39 38 38 37 36 35 35 35 34 33 33 33 33 33 33 33 33 33 34 33 33 33 34 33 32 30 30 30 29 29 30 31 30 28 27 27 25 24 23 23 23 23 23 23 22 22 21 22 22 23 23 23 23 23 23 23 23 23 23 23 23 23 23 23 23 23
35 36 37 37 37 38 38 38 37 37 37 37 38 40 41 41 41 40 40 39 39 38 37 37 36 37 36 35 33 33 33 33 33 33 33 33 33 33 33 33 33 34 33 31 29 29 29 29 29 29 29 28 27 26 25 24 23 24 24 24 24 24 24 23 23 23 24 25 25 24 24 23 23 23 23 23 22 23 23 23 23 24 24 24 24
35 36 36 37 38 39 39 38 37 36 35 35 36 38 40 41 41 41 40 40 39 38 38 38 37 37 37 36 34 34 34 34 33 33 32 32 32 32 32 31 32 32 31 29 28 28 27 28 28 28 28 27 26 25 24 24 25 25 25 25 25 25 24 24 24 25 26 26 25 24 24 23 23 23 23 23 23 23 24 24 24 25 25 25 25
34 35 36 36 37 39 39 39 38 38 37 36 36 37 39 40 40 40 40 39 38 37 38 38 37 37 37 36 35 34 34 34 33 32 31 31 30 30 30 29 30 29 29 28 27 26 25 25 26 26 27 27 26 25 25 25 26 26 26 26 26 25 24 24 25 25 25 25 25 25 24 23 23 22 23 23 23 24 24 25 25 25 25 25 25
32 33 34 35 36 38 39 39 39 38 38 37 36 37 38 39 40 39 38 37 37 36 36 36 36 36 36 35 35 34 35 34 33 32 31 30 29 28 28 28 28 27 27 26 25 24 24 24 24 25 25 25 25 25 25 25 26 26 26 25 25 24 23 24 24 24 24 24 24 24 23 23 23 23 24 24 24 24 24 24 24 25 25 26 26
30 31 32 33 34 35 36 37 37 37 37 36 36 37 37 37 37 37 37 36 36 35 35 36 36 36 35 35 35 35 35 34 33 32 31 29 28 28 27 27 27 26 26 26 25 24 24 24 24 24 25 25 25 26 26 25 26 25 25 25 24 23 23 23 24 24 24 24 23 23 23 23 24 24 24 24 24 24 24 25 25 26 26 26 27
28 29 30 31 31 32 32 33 34 34 34 34 34 34 35 35 35 35 35 35 35 35 35 35 36 36 35 35 35 35 35 35 33 32 31 29 28 27 27 27 26 26 25 25 25 24 24 24 25 25 25 25 26 26 25 25 24 24 24 24 23 23 23 24 24 24 23 23 23 23 24 24 24 24 24 24 25 25 25 25 26 26 27 27 28
24 25 26 27 28 28 28 29 30 31 31 31 31 31 32 33 33 33 32 32 33 34 34 34 35 35 35 35 35 36 36 35 34 33 31 30 28 27 27 26 26 25 25 25 24 24 24 24 24 24 24 25 24 24 23 23 23 22 23 23 24 24 25 25 24 23 22 23 23 24 24 25 25 25 25 25 25 26 26 27 27 28 28 29 30
20 21 23 24 24 24 25 26 27 28 29 29 29 29 29 29 29 29 29 30 31 32 33 34 34 34 34 33 34 35 35 34 33 32 30 28 27 26 25 24 24 24 23 23 23 23 23 23 23 23 24 24 23 22 22 22 22 22 23 23 24 24 24 23 23 23 23 24 25 25 25 25 25 25 25 26 26 26 27 28 29 29 30 31 32
17 17 19 20 21 22 22 23 24 25 25 25 25 24 24 24 25 26 27 28 29 30 32 33 33 34 33 32 32 33 33 32 31 29 27 25 24 24 23 23 23 23 23 23 22 22 22 23 23 23 23 23 22 22 22 22 23 23 23 23 24 24 23 23 24 24 24 24 25 25 25 25 25 26 26 26 27 28 28 29 30 31 32 33 34
15 14 14 15 16 16 18 20 22 22 22 22 22 22 21 20 20 21 23 25 26 27 28 29 29 30 30 30 30 30 30 30 29 27 25 24 23 23 23 23 24 23 23 23 22 22 22 22 22 22 22 22 22 23 23 23 23 23 23 23 23 23 23 23 24 24 24 24 25 25 26 26 26 27 27 28 28 29 30 31 32 33 34 34 35
14 13 12 12 13 12 12 15 19 21 21 21 21 20 20 20 18 18 19 20 22 23 24 25 26 27 28 28 29 29 29 28 26 24 23 23 23 23 23 23 23 23 23 22 22 22 21 21 21 21 21 21 22 23 23 23 23 23 23 22 22 22 23 23 23 24 24 24 25 26 27 27 28 28 29 30 30 31 32 32 33 34 35 35 36
17 16 13 13 13 13 11 11 13 17 19 20 19 19 18 18 18 17 17 16 18 20 22 23 24 25 26 28 28 28 27 25 24 23 22 22 22 22 22 22 22 21 21 21 21 21 20 20 20 21 21 22 23 23 24 24 24 23 23 22 21 21 22 22 23 23 24 25 26 27 28 29 29 30 30 31 32 33 33 34 35 35 36 36 37
17 18 16 14 13 14 14 12 10 11 13 15 17 18 18 18 17 17 17 16 15 16 18 21 23 23 24 26 27 26 25 23 22 22 22 22 22 22 21 21 21 21 21 21 21 21 21 21 21 22 23 23 24 24 24 23 22 21 20 20 20 21 21 22 23 24 25 26 27 28 29 30 31 31 32 33 34 34 35 35 36 36 37 37 38
Wind_Direction
210 210 211 211 212 212 211 210 210 210 211 211 212 213 214 214 213 214 214 215 215 215 216 216 215 216 217 218 217 216 215 214 213 213 213 214 214 215 216 216 219 221 220 221 220 219 220 219 220 218 206 198 195 194 195 193 192 194 194 195 196 196 199 203 211 222 227 231 241 250 260 281 298 307 315 325 332 336 338 337 333 329 331 334 333
209 210 211 212 213 213 213 212 212 212 212 213 213 214 215 216 216 216 217 218 218 218 219 219 219 218 219 220 221 220 218 217 216 215 216 217 217 217 218 219 222 224 224 226 226 226 227 227 228 227 222 216 209 203 201 199 196 197 201 205 209 210 212 218 225 233 239 244 253 265 274 286 298 306 313 321 329 334 336 336 333 330 331 333 332
209 210 211 212 213 214 215 214 214 213 214 214 215 215 216 217 217 218 219 220 220 220 221 221 221 221 221 221 222 223 222 220 219 218 219 220 221 222 222 223 225 227 227 230 230 230 231 232 233 231 229 229 225 217 212 209 207 208 210 214 219 222 224 229 234 239 248 255 261 270 280 289 297 304 310 316 323 327 329 331 332 330 330 331 330
209 210 210 212 213 214 215 216 215 215 215 216 216 216 217 218 218 218 219 220 222 222 222 222 222 223 223 222 222 223 224 223 223 222 222 222 224 225 227 228 230 231 231 232 233 234 234 234 236 235 235 235 233 230 224 221 219 220 222 224 227 230 231 234 240 246 254 262 268 275 283 289 294 298 305 312 317 319 321 326 329 330 330 329 327
209 210 211 212 213 214 215 216 216 217 217 217 218 218 219 219 219 220 220 221 222 223 223 223 223 224 224 224 224 224 225 225 226 226 226 226 226 228 230 231 233 235 236 235 235 236 236 238 239 238 238 238 237 236 233 231 230 229 230 232 234 238 239 241 245 250 255 262 268 275 281 285 289 294 300 308 312 313 316 322 327 328 330 330 328
209 210 211 212 213 214 215 216 216 217 218 219 219 219 220 220 221 221 221 222 222 223 224 224 224 224 225 225 226 226 226 227 228 229 229 229 230 231 232 233 234 237 238 238 238 238 239 240 242 242 241 241 241 240 239 238 238 238 237 238 239 242 245 247 249 251 255 261 267 273 278 282 287 291 296 302 305 307 311 318 322 325 328 330 330
209 210 211 213 214 215 215 216 217 218 219 220 220 221 221 221 222 222 222 223 223 224 224 225 226 226 226 226 226 227 228 229 230 230 231 232 232 233 234 235 236 237 239 241 241 241 241 242 243 244 244 244 244 244 243 243 244 244 243 244 245 245 248 250 252 254 256 260 264 269 276 281 285 289 294 298 300 302 307 311 316 321 325 327 327
210 211 212 214 215 216 217 217 218 219 220 220 221 221 222 222 223 223 224 224 224 224 225 226 227 227 228 227 227 228 229 230 231 232 232 233 234 235 236 237 238 238 239 241 242 243 244 245 245 246 246 247 247 246 246 246 247 248 248 249 249 250 251 252 253 255 257 261 264 269 274 279 282 286 290 294 296 299 304 306 309 315 319 321 322
210 211 212 214 216 217 218 218 219 219 220 221 222 222 223 223 224 224 224 225 225 226 226 227 227 228 229 229 229 229 229 230 231 233 233 234 234 236 237 238 239 240 241 242 243 244 245 246 247 247 248 248 248 248 248 248 249 250 251 251 252 252 253 254 254 256 258 261 265 269 273 276 279 283 287 289 291 294 300 303 303 308 313 316 318
212 212 213 215 216 217 218 218 219 220 220 221 222 223 223 223 224 225 225 226 226 226 227 227 228 229 229 230 230 230 231 231 232 232 234 235 235 237 238 239 239 241 242 243 245 245 246 247 247 247 248 249 249 250 250 250 250 251 252 252 252 253 254 255 255 257 259 261 265 269 272 275 277 280 283 285 287 291 296 297 297 302 308 311 315
213 214 214 215 216 217 218 218 219 220 221 221 222 223 223 223 224 225 225 226 227 227 227 228 228 229 230 231 231 231 232 233 233 233 234 235 236 237 238 239 240 241 242 244 245 246 247 248 248 248 248 249 250 251 251 252 252 252 252 252 252 252 253 254 255 257 259 261 264 267 270 274 277 280 280 282 284 287 290 291 293 299 304 307 310
214 214 214 215 215 217 218 219 220 220 221 221 222 223 223 224 224 224 225 226 227 227 228 228 229 230 230 231 232 232 233 233 233 234 235 235 236 238 239 240 241 242 243 244 245 246 248 249 250 250 250 250 251 252 253 253 253 253 253 254 254 254 253 254 255 257 258 261 264 266 268 272 277 279 279 280 281 282 283 285 289 294 298 301 304
214 214 214 215 216 217 218 219 220 221 221 221 222 223 223 224 224 224 225 226 227 227 228 229 229 230 231 232 232 233 234 234 234 235 235 236 236 238 239 240 241 242 243 243 245 246 247 249 250 251 252 252 252 253 254 255 256 256 255 256 256 256 256 256 256 257 257 259 262 264 266 269 273 277 279 279 279 278 278 281 285 289 294 298 300
215 215 215 216 217 218 219 220 221 221 221 222 222 223 223 224 225 225 225 226 226 227 228 229 230 230 231 232 233 234 234 234 234 234 235 236 237 238 239 240 241 242 243 243 244 245 247 248 249 251 252 253 253 254 254 255 256 257 258 258 258 257 257 257 257 258 258 258 259 261 264 266 270 276 280 279 277 276 275 278 283 286 290 295 298
217 217 217 218 220 221 221 222 222 221 221 221 222 223 223 224 225 226 226 226 227 227 228 229 230 231 232 233 234 234 235 234 234 234 235 236 237 238 239 240 241 242 243 243 244 245 247 248 249 251 252 253 253 254 254 256 256 258 259 260 260 259 258 257 256 257 257 257 258 259 262 265 269 275 278 277 276 275 275 277 281 284 288 292 295
219 219 219 220 221 223 223 223 223 221 220 220 221 222 223 224 225 225 226 227 228 228 229 230 230 231 232 233 234 235 235 234 234 234 235 235 236 238 240 240 241 242 243 244 245 246 247 248 249 250 251 252 253 253 254 256 257 258 260 261 261 261 260 258 256 256 256 257 258 260 262 265 268 272 274 275 275 275 276 278 281 284 287 290 293
220 220 221 222 223 224 224 224 224 223 221 220 220 221 223 224 224 225 226 227 228 228 229 230 231 232 232 233 234 235 235 235 234 235 235 236 236 238 239 240 242 243 244 245 245 246 247 248 249 250 251 252 253 253 254 255 256 257 259 261 262 262 261 259 258 257 256 257 259 260 262 265 267 269 271 272 272 273 275 277 280 283 286 288 291
221 221 222 223 224 225 225 225 225 224 222 221 220 221 222 223 224 224 225 226 227 228 229 230 231 231 232 233 234 235 236 236 235 235 235 236 236 238 239 240 242 243 244 245 246 246 247 248 249 250 251 252 252 253 254 254 255 256 257 259 260 261 261 260 259 258 257 258 259 261 263 265 266 267 269 270 269 270 272 276 279 283 285 287 289
223 224 224 225 225 226 226 225 224 224 224 222 221 221 222 223 224 225 225 226 227 228 229 230 230 231 232 233 234 235 236 236 236 236 236 236 237 238 239 240 241 243 245 246 247 247 248 248 249 249 250 251 252 252 253 254 255 256 256 257 258 260 261 260 260 259 259 259 261 262 263 265 265 267 269 270 269 269 272 276 278 280 283 286 288
226 227 227 226 226 226 224 223 223 224 225 224 223 223 223 223 224 225 226 227 228 228 229 229 230 231 231 232 233 234 236 237 236 236 237 237 237 238 239 240 241 243 245 246 247 248 248 249 250 250 251 251 252 252 253 253 254 256 256 256 257 259 260 260 259 259 259 260 261 262 263 264 266 267 270 270 270 271 273 275 278 280 282 285 287
229 229 228 227 227 226 224 223 224 226 226 226 225 224 224 224 224 225 227 227 228 228 229 229 230 231 231 232 233 234 235 237 237 237 237 237 237 238 239 240 242 243 245 247 248 249 250 250 251 251 251 251 252 252 252 253 254 256 256 257 258 260 261 260 260 260 260 261 261 261 262 264 266 268 270 271 273 273 274 275 278 280 283 285 287
230 230 230 229 228 228 226 225 226 227 227 226 226 225 225 225 225 226 227 228 228 229 229 230 230 232 232 233 234 235 235 236 237 237 237 237 237 238 239 240 242 243 245 247 248 250 251 252 253 253 252 252 252 252 252 253 254 256 257 257 259 260 261 261 261 261 261 261 261 261 262 265 267 268 270 272 273 274 275 276 278 280 283 286 288
232 232 232 231 230 229 227 225 226 227 227 227 226 226 226 226 226 227 227 228 229 229 230 231 231 232 233 234 235 235 236 237 237 238 238 238 238 238 239 241 242 243 244 246 248 250 252 253 254 254 254 253 253 252 253 253 255 256 257 258 259 260 260 261 261 262 262 262 262 261 262 264 267 269 270 272 273 274 276 278 279 280 283 285 288
234 234 234 233 232 230 227 226 226 227 228 227 227 226 226 226 227 227 228 229 230 230 230 231 231 232 233 235 236 236 237 238 238 238 239 239 239 240 240 242 243 243 245 246 248 250 252 253 254 254 254 254 254 254 254 254 255 256 257 258 259 260 260 261 261 262 262 262 261 261 262 264 266 269 271 273 274 275 276 277 279 280 283 285 287
236 237 237 236 234 231 229 228 228 229 229 229 227 227 227 227 228 228 228 229 230 230 231 231 232 233 234 235 236 237 238 239 239 239 239 239 240 240 241 242 243 244 245 247 248 250 252 253 254 254 255 255 255 255 255 256 256 257 258 259 259 259 259 259 260 261 261 261 261 261 262 264 266 268 271 273 274 275 276 277 278 280 283 286 288
238 239 239 239 237 234 232 231 230 230 230 230 229 228 228 228 228 229 229 229 230 231 231 231 232 233 234 235 237 238 238 239 240 240 241 241 241 241 242 243 244 245 246 248 249 250 251 253 254 255 255 255 255 256 256 257 257 258 259 260 260 259 259 258 258 258 259 259 260 261 262 264 266 268 270 272 273 274 275 276 278 281 284 285 287
240 240 240 241 239 236 233 231 231 230 230 230 229 229 229 229 229 229 229 229 230 230 231 232 232 233 234 236 237 238 239 240 240 241 242 242 242 242 242 244 245 245 247 248 249 250 251 252 254 254 255 255 255 256 257 257 258 259 260 260 259 259 258 258 257 257 258 259 260 261 262 264 266 267 269 270 271 272 273 275 278 280 282 283 284
240 240 240 241 240 238 234 232 230 230 230 229 229 229 228 229 229 229 229 230 230 230 231 232 232 233 235 236 237 238 239 240 241 241 242 242 242 242 242 243 245 245 246 246 247 248 249 250 252 253 253 254 254 255 256 257 258 259 259 259 258 258 258 257 257 257 258 258 259 260 262 264 266 267 268 269 270 271 273 275 277 279 280 280 281
241 240 241 241 240 237 235 233 231 229 229 229 229 229 230 230 230 230 231 231 231 232 232 233 234 234 235 236 236 238 239 241 242 242 242 242 242 242 242 244 244 245 245 245 245 245 246 248 249 249 250 251 252 254 255 256 257 258 258 257 257 256 257 256 256 257 257 258 259 260 262 264 266 267 267 268 269 271 273 274 277 279 279 278 278
241 241 240 241 240 238 235 233 231 230 229 229 229 230 230 231 231 231 232 232 232 232 233 234 235 236 236 237 237 238 240 242 243 242 242 242 242 242 243 244 244 244 244 244 243 243 244 245 246 247 248 250 251 252 254 255 255 256 256 256 255 255 255 255 256 257 258 258 259 259 261 263 265 266 267 268 268 270 272 274 277 278 278 277 277
242 241 240 241 241 239 236 233 232 231 230 229 229 229 229 231 232 232 232 232 232 232 233 235 236 237 237 238 239 239 241 243 243 243 242 242 242 242 243 244 244 243 243 242 242 243 243 244 245 247 248 250 251 252 253 254 254 254 254 254 254 253 253 254 256 257 258 257 258 259 261 264 265 266 266 267 268 269 272 274 277 277 276 276 277
242 242 241 242 242 240 236 233 232 231 230 229 228 228 229 230 232 232 232 232 233 233 234 236 237 238 238 239 239 240 241 242 242 242 242 241 241 241 242 243 243 243 242 242 242 242 242 243 245 247 249 250 252 252 253 253 252 252 252 252 252 251 252 255 257 257 257 257 258 260 263 264 265 265 265 266 267 269 271 273 274 275 274 275 276
243 242 242 242 242 241 237 234 233 231 230 229 229 229 230 231 231 232 232 233 234 235 236 238 239 240 240 240 240 240 241 241 241 241 240 240 239 240 241 242 242 242 241 241 241 241 242 244 246 248 250 251 252 252 252 252 251 250 251 252 253 254 256 257 258 258 257 258 260 262 265 265 263 262 264 266 267 268 270 271 272 273 274 275 276
243 242 242 242 242 242 240 237 234 232 231 230 230 230 231 231 231 231 232 233 235 236 237 239 241 241 241 241 241 240 240 241 242 241 240 239 239 239 240 241 241 241 241 241 240 241 242 244 246 248 249 250 251 251 251 251 251 252 254 256 260 263 264 263 261 259 259 261 263 266 269 268 262 258 260 265 268 268 269 271 272 274 275 275 275
243 243 242 242 241 242 241 239 237 235 233 232 231 231 232 232 232 232 232 233 235 237 237 239 240 240 239 240 240 240 240 241 241 240 239 239 238 238 239 240 240 240 241 241 241 241 243 245 246 247 249 250 250 250 251 252 255 258 259 259 261 266 269 269 265 261 260 263 265 267 268 267 263 259 260 265 268 268 269 271 272 273 274 275 276
244 243 242 241 241 242 241 240 237 235 234 233 233 233 233 234 233 232 233 234 236 237 238 239 240 239 238 238 238 239 239 240 239 239 239 238 237 237 238 239 240 241 241 242 242 242 243 244 245 248 250 251 251 252 255 258 260 260 260 260 261 264 267 269 266 263 261 263 266 265 264 264 265 264 264 266 268 268 269 270 271 272 273 274 276
244 243 242 241 241 241 241 240 238 235 233 233 234 234 234 234 234 233 234 235 236 236 237 239 240 238 237 236 237 237 238 237 236 236 236 236 236 237 239 239 240 241 241 242 243 242 242 243 246 249 251 253 255 257 260 261 260 261 262 264 265 265 265 266 265 263 263 266 268 267 265 265 266 266 266 267 268 268 269 271 272 273 273 274 276
243 243 243 242 241 240 240 241 241 238 234 233 234 234 234 235 234 234 234 235 235 236 236 238 239 238 236 235 235 235 234 233 232 233 234 235 236 238 239 240 241 241 240 240 242 243 242 243 247 251 254 256 257 258 259 260 262 264 267 267 267 266 265 264 263 262 264 268 270 269 267 266 266 266 267 268 268 268 269 272 273 273 273 274 275
243 243 243 242 241 240 240 242 243 242 238 235 234 233 233 233 234 234 234 235 236 236 236 236 237 237 235 234 235 234 231 230 231 232 234 235 236 238 239 240 241 242 240 238 240 242 242 243 247 251 255 257 257 256 257 260 263 265 266 266 267 267 266 264 262 262 265 268 270 269 267 266 266 267 267 267 267 268 270 272 273 273 273 273 275
244 243 243 243 241 240 241 242 243 243 242 240 237 235 233 233 233 233 233 234 235 235 236 235 235 236 235 234 233 232 230 229 230 231 232 234 235 236 237 238 240 242 241 239 239 241 242 244 246 249 252 255 256 257 258 260 261 262 262 263 265 266 266 265 264 264 265 268 268 268 266 266 266 267 266 266 268 270 272 273 274 273 273 274 276
246 244 244 243 242 241 241 241 240 241 242 241 239 237 234 233 232 233 233 233 233 234 235 235 235 235 234 231 229 228 228 228 228 228 230 231 232 233 235 236 238 241 243 242 241 240 240 241 244 246 249 252 253 255 257 259 259 259 260 261 262 263 264 264 265 266 268 269 268 267 266 265 265 266 268 270 272 274 274 274 274 274 273 275 276
248 246 245 244 243 242 242 242 241 240 240 239 238 237 235 234 233 233 233 233 233 233 233 233 232 232 231 228 225 225 226 226 225 226 227 229 229 230 232 234 236 239 242 243 243 242 241 241 244 247 248 250 252 254 256 258 258 258 259 259 260 261 262 263 264 266 268 268 267 266 265 265 266 268 271 273 275 275 274 274 274 274 274 276 277
248 248 246 245 245 243 243 243 242 240 239 239 238 237 235 234 233 232 231 231 232 232 231 230 229 228 228 226 224 224 224 224 224 225 226 226 227 228 230 232 235 237 239 241 242 243 243 245 246 247 248 250 253 255 256 256 257 258 259 259 259 261 262 263 264 265 265 265 264 264 265 267 270 272 273 274 275 275 275 274 275 276 276 277 279
247 247 245 245 244 243 242 242 241 238 237 237 237 236 235 233 231 230 229 231 232 231 230 228 226 225 224 224 223 222 222 222 223 224 224 224 225 227 229 231 233 235 237 239 241 242 244 245 246 248 249 252 254 255 256 257 258 259 259 259 260 261 262 262 262 262 261 261 262 265 267 270 272 273 274 274 274 274 275 275 276 277 278 279 280
244 244 244 243 243 242 241 240 238 235 234 234 234 234 234 234 232 230 230 231 231 229 227 225 224 223 223 224 223 221 221 222 222 222 222 222 223 224 226 228 230 232 234 237 239 241 243 245 246 248 250 252 254 255 256 258 259 258 258 260 262 262 261 260 260 260 260 262 266 269 271 272 272 272 272 272 273 274 275 277 278 279 280 281 282
243 243 243 242 242 240 238 236 235 232 232 232 232 231 232 234 234 233 230 229 228 226 225 223 222 221 221 222 222 220 219 219 219 218 218 219 219 221 223 225 227 230 233 236 239 241 243 244 246 247 249 252 254 255 255 256 257 257 259 262 262 259 257 258 261 263 265 267 270 271 271 272 272 272 272 273 274 275 276 277 279 280 281 282 283
247 246 245 242 239 237 236 233 230 228 228 228 227 227 229 231 232 230 226 223 223 223 223 222 220 219 218 218 218 218 218 218 216 215 216 218 219 221 222 223 225 229 232 235 238 241 242 244 245 247 250 252 253 254 255 256 257 258 260 261 260 259 259 261 263 266 268 270 271 272 271 272 272 272 273 274 275 276 278 279 280 281 282 283 285
242 241 239 236 232 231 232 231 227 225 224 223 222 222 224 226 225 223 220 219 220 221 222 222 221 219 216 215 215 216 217 216 215 215 217 220 222 224 224 225 226 229 232 234 237 240 242 244 246 249 251 252 253 254 256 258 259 260 261 260 259 261 263 264 265 267 270 272 273 272 272 273 274 275 276 277 278 279 280 281 282 283 284 285 285
232 230 228 226 226 226 229 230 227 225 223 220 218 219 221 221 218 216 216 217 219 220 221 221 221 219 216 214 213 213 213 213 215 216 218 220 221 223 224 225 227 230 232 234 237 239 242 244 247 250 252 254 256 257 258 259 260 261 260 259 260 262 264 266 267 270 273 274 275 274 275 276 277 278 279 280 280 281 282 283 284 285 285 285 286
230 229 227 227 229 228 225 220 216 217 219 219 217 216 216 214 213 212 212 214 214 215 216 216 215 214 212 210 207 206 209 212 215 217 219 219 220 221 222 223 225 228 230 233 236 239 242 245 248 251 254 256 258 259 259 259 260 259 257 257 262 267 269 268 270 272 274 276 277 278 278 279 280 281 281 282 282 283 283 284 285 285 286 286 286
228 228 226 227 229 227 222 214 202 197 201 206 210 212 212 211 209 209 209 209 210 211 212 213 213 211 208 204 202 203 208 212 216 218 219 219 219 219 220 222 225 228 231 234 237 240 244 247 250 253 256 258 260 260 259 258 259 259 258 259 265 270 271 271 272 275 277 279 280 281 281 282 282 283 283 283 283 283 284 285 285 286 286 286 286